Starlink 30589

operational
NORAD ID: 58103 Int'l Des: 2023-161 Owner: SPXS Country: US Constellation: starlink
LEOCIRCULAR

About Starlink 30589

Description loading...

Live Position

Loading 3D Globe...

Upcoming Passes

Altitude History

Altitude vs Time

uPlot chart will show altitude changes over time

Two-Line Element Set

1 58103U 23161G 25346.92609605 .00000224 00000-0 19697-4 0 9991
2 58103 53.1595 208.6342 0000962 106.8801 253.2306 15.30190661121134
Epoch: Dec 12, 2025 • Age: 27 hours

Current Status

Altitude 479.5 km
Velocity 7.63 km/s
Sub-Earth Point 45.92°N, 130.62°W
Launch Date Oct 21, 2023
Age 2.1 years
Type internet

Technical Details

Classification Payload
Mass 730.00 kg
Dry Mass 700.00 kg
Total Mass 730.00 kg
Length 0.30 m
Diameter 4.10 m
Span 29.00 m
Shape Box + pan
Manufacturer SPXS
Bus Type Starlink V2M
Phase Status In Orbit
Owner/State SPXS/US

Large Constellations

Loading constellations...